RH
44 59 62 66 74 40 29 24 24 24 25 19 14 11 11 15 17 20 20 16 15 20 33 44 48 52 55 54 55 55 56 63 63 55 53 37 42 56 55 51 50 46 27
47 63 66 74 71 64 42 25 30 35 32 24 19 15 12 11 13 19 16 16 15 16 25 39 45 50 54 61 59 60 60 63 68 66 56 52 48 50 61 57 52 51 35
65 57 66 72 74 62 50 41 32 34 29 30 25 20 15 12 11 10 10 10 12 15 20 32 43 52 51 58 61 61 64 69 67 66 64 54 52 54 54 67 54 54 47
76 66 62 64 68 65 62 48 48 33 34 28 26 23 18 16 13 13 12 9 8 10 18 28 36 47 51 56 60 61 66 68 68 66 63 64 54 57 48 58 61 53 54
62 65 59 63 54 49 52 50 54 40 34 35 37 33 23 16 14 12 12 14 16 14 17 24 30 41 49 54 56 61 66 70 67 64 65 66 68 60 59 45 65 59 56
46 51 60 59 46 45 44 44 49 47 42 36 32 34 35 28 20 16 12 12 15 15 13 15 20 29 37 47 52 57 64 72 69 62 58 56 74 72 72 46 63 63 60
34 37 43 47 46 41 42 44 44 47 42 46 41 36 32 36 36 29 21 17 17 24 24 23 24 28 35 41 43 50 61 73 73 64 57 48 64 83 82 55 61 66 63
33 37 41 44 42 39 41 38 43 46 43 37 42 41 40 42 51 52 30 16 14 19 34 33 31 29 35 45 41 59 62 70 78 70 62 49 52 71 82 78 69 75 75
29 35 37 45 45 41 35 39 40 42 40 35 33 41 52 55 54 55 43 22 16 16 15 26 30 32 40 45 46 62 67 72 79 76 68 58 47 60 76 88 74 77 79
26 26 34 34 49 45 34 39 38 38 36 34 31 33 39 65 59 54 47 29 19 15 20 22 32 40 43 47 51 56 63 70 83 81 73 61 54 60 72 85 82 79 89
26 27 27 33 36 37 35 40 37 34 33 32 28 28 36 41 58 72 66 56 28 18 15 22 36 46 51 47 55 56 58 65 77 84 81 70 65 65 70 73 83 79 80
30 28 29 33 37 41 37 38 43 37 36 37 35 29 33 40 54 76 85 67 39 23 19 14 14 35 52 49 51 58 58 62 73 81 85 73 72 71 70 75 86 82 80
31 34 33 31 31 34 40 44 45 45 41 43 41 38 35 38 47 72 79 83 63 30 22 19 12 13 33 46 62 62 62 62 72 76 86 88 88 82 79 81 86 92 90
24 23 25 27 28 29 29 31 34 42 45 47 53 44 42 44 48 59 74 84 63 32 22 19 18 27 22 35 58 71 70 73 72 74 79 81 88 84 78 84 81 91 91
21 23 24 24 24 26 28 31 32 32 38 66 66 84 58 58 60 70 70 84 78 47 34 21 19 19 37 31 38 49 66 80 79 79 79 85 93 82 77 81 84 85 98
2 4 9 16 22 25 25 29 33 41 40 55 74 83 97 85 60 65 69 74 75 81 42 34 24 21 16 21 29 35 55 66 72 85 82 82 86 90 87 91 87 84 88
1 1 1 1 1 1 5 20 30 35 47 51 57 92 99 84 100 65 69 58 91 78 69 41 38 27 24 16 13 16 22 40 53 68 75 83 78 75 76 87 87 83 85
2 2 2 2 1 1 1 1 1 10 35 47 59 74 76 95 95 99 91 100 75 78 74 64 44 38 27 22 14 13 14 15 23 32 68 74 71 69 71 82 90 83 79
3 4 3 3 4 3 2 2 2 1 2 11 41 60 68 90 98 92 95 95 100 88 82 67 57 40 29 26 24 16 13 15 14 17 34 79 69 69 78 78 88 92 99
4 4 4 5 6 8 8 6 5 6 4 2 3 28 54 70 83 97 90 98 92 98 97 100 97 37 30 34 29 24 14 13 13 13 19 51 78 75 79 85 88 93 92
11 11 10 10 9 9 10 11 11 8 8 10 7 4 19 51 67 82 84 83 97 94 99 81 99 76 37 38 38 29 19 13 14 13 16 27 57 79 89 86 91 96 100
16 14 13 13 13 11 11 10 11 12 13 11 12 12 6 15 50 65 72 73 94 97 95 98 100 100 59 44 44 37 26 16 13 12 19 36 60 82 95 89 86 97 99
14 17 18 17 15 13 13 11 11 11 13 17 16 17 20 13 20 52 67 83 100 92 100 86 100 98 97 58 53 51 35 20 14 16 33 55 63 88 98 95 95 88 99
14 15 18 19 18 18 20 19 20 18 12 12 13 14 16 22 20 32 53 74 100 100 99 97 100 98 100 72 59 60 42 23 27 25 56 84 82 89 87 100 89 89 98
6 5 5 10 18 26 26 22 22 24 18 16 12 10 12 17 27 30 50 56 88 100 96 100 100 100 99 99 65 64 47 29 21 31 85 94 87 96 93 98 98 100 100
5 5 5 5 10 17 20 21 22 22 21 16 15 14 13 16 18 38 50 62 61 98 100 100 100 100 100 100 82 79 60 37 46 84 83 91 98 98 98 98 99 98 99
Wind_Speed
10 12 10 8 6 3 3 4 3 4 5 5 6 5 3 1 2 2 4 5 6 8 8 8 8 5 4 3 3 5 5 4 4 4 2 3 6 7 7 8 9 8 8
7 15 9 9 8 9 5 2 5 4 3 4 5 3 2 1 1 3 5 6 8 9 10 10 9 9 6 5 5 6 6 5 4 4 4 3 5 6 7 7 8 8 8
6 11 14 11 9 8 7 8 3 4 5 6 6 6 5 4 3 3 4 6 8 10 11 11 11 10 9 8 7 6 7 6 5 6 6 6 5 6 6 6 8 8 9
5 10 11 11 9 9 7 6 5 5 3 5 7 9 9 8 7 5 5 6 7 9 11 12 13 12 12 10 9 8 8 8 6 7 8 8 7 7 7 8 7 8 8
7 11 10 12 13 13 8 8 7 7 6 5 6 7 7 8 9 9 8 7 7 9 11 12 14 14 14 13 12 10 11 9 7 8 9 9 9 10 9 9 9 10 9
9 9 10 13 16 15 13 11 10 10 10 9 8 8 8 9 9 8 9 9 9 10 11 13 15 16 16 16 14 13 13 11 9 10 10 10 11 12 12 12 12 11 10
13 12 12 15 18 19 16 15 14 13 13 13 12 11 10 10 10 11 11 11 10 11 11 13 15 17 17 17 17 16 15 13 12 11 11 12 13 13 14 14 14 12 12
15 15 16 18 21 21 20 18 18 17 16 17 17 15 14 13 13 12 13 13 13 13 14 14 15 17 17 18 18 16 17 16 15 13 13 14 15 14 15 17 17 15 15
19 19 19 21 24 23 23 22 22 21 19 19 20 19 18 17 16 15 15 15 15 15 17 17 18 18 18 19 19 19 17 18 17 16 15 16 16 17 17 18 19 17 16
23 23 23 23 24 25 25 23 23 24 23 24 24 23 22 21 19 19 19 18 18 18 18 19 19 19 19 21 21 19 19 20 17 17 17 18 17 18 18 19 20 20 19
27 27 28 28 29 29 30 29 27 27 27 26 27 26 25 25 24 22 23 22 20 20 20 20 20 21 20 22 21 20 21 21 20 20 20 20 17 18 19 21 21 22 25
29 30 30 30 33 35 36 36 35 31 31 31 31 30 29 28 28 25 26 25 23 22 22 22 23 23 22 22 22 22 22 23 22 21 20 19 19 19 20 21 23 23 24
33 33 33 34 34 35 37 39 39 37 35 34 34 34 33 32 32 30 27 29 28 25 24 24 24 24 24 23 22 23 25 25 23 24 24 23 22 22 22 23 23 25 26
38 39 40 39 39 40 40 40 42 42 39 38 37 38 37 36 37 35 33 31 30 30 26 24 25 24 25 27 25 26 26 25 25 27 24 26 24 24 24 24 25 26 28
36 39 43 45 47 46 45 45 44 44 45 41 37 37 38 39 39 40 39 34 34 33 30 28 27 26 27 28 29 29 29 29 26 28 24 25 25 24 25 25 24 26 30
34 37 39 42 44 47 48 48 49 47 45 46 43 43 43 39 44 45 44 41 38 34 35 31 30 29 29 30 31 31 32 31 30 29 26 28 28 27 27 25 26 28 28
34 35 36 38 41 44 46 48 49 50 50 47 47 50 43 46 41 45 44 46 39 38 36 37 33 33 32 31 33 33 33 34 34 32 30 29 30 29 27 24 26 30 29
32 33 35 37 39 40 42 44 46 49 49 52 50 51 52 51 48 41 48 36 44 43 41 40 38 37 37 35 34 33 34 34 34 33 32 31 33 31 28 27 26 28 33
35 36 37 38 37 36 38 40 43 45 47 50 52 52 54 55 54 50 45 44 41 44 45 42 41 41 40 37 35 35 34 35 34 33 34 32 32 31 29 27 26 21 19
35 37 38 38 38 38 37 35 37 38 42 46 48 52 54 58 62 55 56 57 49 40 32 32 40 42 41 39 38 36 35 36 35 35 34 35 33 33 30 28 27 30 28
32 34 35 36 37 38 37 36 35 36 36 36 42 45 52 55 59 63 59 55 54 49 50 47 39 41 42 40 39 39 37 37 36 35 34 35 35 36 33 30 29 33 30
32 34 36 36 37 38 39 40 40 38 37 40 37 38 45 52 54 59 60 58 51 49 54 46 47 41 42 42 41 39 39 38 38 35 36 36 35 36 36 33 31 31 34
34 36 38 40 42 42 42 41 40 42 42 41 41 40 38 43 51 55 60 58 52 63 52 51 46 50 46 43 43 40 40 41 36 37 35 34 36 36 33 34 31 34 30
37 39 41 42 43 43 44 43 42 40 40 42 43 42 40 38 45 50 54 59 57 56 56 53 46 51 43 46 44 42 39 36 38 37 34 29 32 37 35 34 39 31 40
40 42 42 42 43 43 42 43 43 41 39 39 42 44 45 40 38 47 51 52 62 54 66 60 55 55 44 51 46 42 41 38 37 38 36 30 32 30 33 31 52 41 45
37 40 41 42 43 45 45 43 42 41 39 38 39 42 43 42 38 40 50 51 51 63 59 64 61 52 59 43 48 44 41 40 37 35 34 33 31 31 37 36 43 39 49
Wind_Direction
196 196 174 162 148 236 288 332 354 11 18 18 18 23 17 345 279 250 248 245 244 246 252 259 264 255 232 225 234 248 253 241 235 231 201 152 147 145 146 145 144 141 135
223 207 197 196 177 181 208 281 325 334 348 360 7 7 11 346 266 258 246 245 243 242 240 247 256 255 246 230 230 240 245 244 250 253 246 224 169 166 163 162 159 151 146
272 214 211 209 199 202 211 190 201 307 323 331 346 347 340 336 310 277 256 245 235 234 236 241 246 253 251 245 237 242 243 245 240 245 245 231 218 195 188 188 180 166 161
228 206 221 224 215 217 230 243 232 204 238 309 326 340 341 331 330 309 286 268 258 243 237 242 240 249 252 253 250 247 245 246 247 243 238 235 231 219 211 203 201 186 179
209 210 223 224 224 230 237 254 271 264 254 231 268 299 325 330 321 318 301 288 267 253 244 241 242 244 248 254 253 250 251 248 241 249 243 236 226 225 218 213 206 202 195
230 224 233 228 223 228 232 240 261 266 266 260 253 263 292 315 313 304 300 286 272 255 239 236 238 242 243 248 253 251 253 248 237 239 246 247 232 221 216 216 212 209 203
235 240 241 247 233 232 236 242 254 261 264 267 266 266 269 287 301 303 298 284 273 262 252 239 235 238 241 244 245 250 251 248 241 238 242 247 238 230 218 215 219 214 210
245 242 238 237 235 238 241 243 252 264 264 265 263 261 263 270 282 290 291 288 278 265 253 253 248 242 241 244 244 246 247 245 244 240 239 239 238 232 226 219 221 220 218
248 253 250 240 239 238 240 244 252 260 266 264 264 266 269 268 274 281 284 284 276 269 261 252 252 245 243 246 243 243 244 245 245 242 239 237 236 233 227 221 219 223 220
250 248 253 250 244 240 241 247 253 259 262 260 261 263 266 271 271 273 276 280 279 270 264 259 251 250 248 245 244 245 245 247 246 244 238 236 236 235 225 227 226 225 224
256 253 250 250 248 243 246 250 253 256 257 255 255 257 261 262 267 271 272 275 276 273 266 260 254 250 247 248 246 246 246 249 246 244 241 236 236 236 228 231 231 233 231
262 261 258 255 252 252 249 250 253 253 254 254 253 255 258 258 260 264 267 268 271 273 271 263 257 252 249 248 250 249 247 248 247 244 241 239 234 237 237 233 234 235 234
258 261 263 262 262 259 258 258 255 254 253 252 252 253 254 255 254 257 260 265 267 268 270 267 262 255 252 250 251 249 248 247 247 246 243 244 242 240 240 238 237 238 236
271 266 262 261 262 264 264 262 260 259 257 253 252 253 252 251 250 253 257 259 258 263 264 265 264 259 251 249 249 247 246 245 245 246 245 246 246 243 240 240 237 240 240
273 272 271 269 267 266 265 263 262 261 259 258 250 254 249 249 247 250 253 257 261 259 261 262 261 260 257 249 249 248 247 247 244 245 243 246 244 241 243 242 243 246 244
285 283 279 275 274 272 269 266 263 260 259 256 254 250 255 253 250 248 250 254 255 264 258 259 260 258 256 255 251 248 247 245 246 246 242 243 245 242 249 247 245 246 245
296 290 283 281 280 277 274 269 266 262 258 256 254 248 250 245 256 249 251 251 251 257 258 257 259 260 255 253 253 251 250 248 248 247 247 243 247 245 248 247 252 249 258
305 303 299 293 289 286 282 278 273 266 261 255 250 247 248 249 246 252 251 253 247 253 258 254 256 258 256 252 251 252 251 251 250 247 249 246 246 247 246 246 253 261 270
314 311 308 306 304 298 290 287 282 277 271 261 255 247 244 242 248 240 246 244 250 246 252 260 257 256 256 253 252 250 250 252 250 248 246 247 245 245 242 246 245 248 210
312 311 310 310 308 306 303 298 292 290 281 273 264 255 247 243 243 244 244 246 247 241 243 261 260 252 251 252 253 253 249 249 249 246 243 245 245 245 240 243 240 231 211
310 309 307 306 305 304 302 300 296 289 288 287 278 267 256 247 243 244 244 245 244 244 247 247 257 249 249 250 252 251 250 249 247 246 243 242 242 245 241 238 239 237 233
306 307 307 307 305 303 301 298 297 296 292 289 288 281 265 256 249 243 241 241 243 238 239 242 247 260 250 248 249 252 252 248 247 247 241 240 236 238 244 239 239 239 237
309 309 308 307 306 305 304 302 299 295 293 291 291 291 288 265 254 248 242 236 236 234 243 237 251 246 250 245 247 247 251 251 248 248 241 237 233 231 244 240 238 245 225
311 309 307 306 303 301 300 300 301 299 293 287 285 285 285 287 264 253 248 242 234 239 236 230 242 231 241 246 244 244 248 251 247 251 244 238 230 233 231 242 246 244 237
310 309 306 302 300 299 299 299 297 295 296 294 289 285 285 285 282 261 253 248 237 233 231 235 236 236 231 240 238 242 243 245 246 242 245 241 230 243 234 231 233 236 226
312 311 310 306 301 298 297 297 298 296 294 292 293 289 282 282 282 271 259 254 248 228 228 234 237 237 231 235 238 238 238 243 241 243 240 236 251 237 240 244 222 237 221